| time (UTC) | temp F | wind direction | speed knots | gust knots | rain 1hr in | rain 24hr in | rain mn in | humidity % | barometer mb |
| 20260503181530 | 73 | 13 | 1.7 | 5.2 | 0.00 | 0.00 | 0.00 | 51 | 1009.9 |
| 20260503181026 | 72 | 339 | 2.6 | 3.5 | 0.00 | 0.00 | 0.00 | 52 | 1010.2 |
| 20260503180523 | 72 | 341 | 3.5 | 5.2 | 0.00 | 0.00 | 0.00 | 51 | 1010.2 |
| 20260503180020 | 72 | 34 | 0.9 | 5.2 | 0.00 | 0.00 | 0.00 | 52 | 1010.5 |
| 20260503175518 | 71 | 18 | 2.6 | 3.5 | 0.00 | 0.00 | 0.00 | 52 | 1010.1 |
| 20260503175015 | 71 | 7 | 1.7 | 5.2 | 0.00 | 0.00 | 0.00 | 54 | 1010.2 |
| 20260503174512 | 70 | 350 | 1.7 | 3.5 | 0.00 | 0.00 | 0.00 | 54 | 1010.3 |
| 20260503174008 | 69 | 327 | 2.6 | 2.6 | 0.00 | 0.00 | 0.00 | 56 | 1010.4 |
| 20260503173503 | 69 | 5 | 1.7 | 6.1 | 0.00 | 0.00 | 0.00 | 55 | 1010.4 |
| 20260503173000 | 69 | 347 | 1.7 | 3.5 | 0.00 | 0.00 | 0.00 | 57 | 1010.6 |
| 20260503172458 | 69 | 342 | 2.6 | 2.6 | 0.00 | 0.00 | 0.00 | 56 | 1010.5 |
| 20260503171954 | 68 | 327 | 2.6 | 3.5 | 0.00 | 0.00 | 0.00 | 58 | 1010.4 |
| 20260503171451 | 68 | 10 | 1.7 | 2.6 | 0.00 | 0.00 | 0.00 | 56 | 1010.5 |
| 20260503170948 | 67 | 11 | 1.7 | 2.6 | 0.00 | 0.00 | 0.00 | 58 | 1010.5 |
| 20260503170444 | 67 | 350 | 1.7 | 3.5 | 0.00 | 0.00 | 0.00 | 56 | 1010.5 |
| 20260503150837 | 55 | 68 | 0.0 | 0.9 | 0.00 | 0.00 | 0.00 | 90 | 1011.1 |
| 20260503150333 | 54 | 68 | 0.0 | 0.9 | 0.00 | 0.00 | 0.00 | 90 | 1011.2 |
| 20260503140257 | 51 | 68 | 0.0 | 0.0 | 0.00 | 0.00 | 0.00 | 92 | 1011.0 |
| 20260503131227 | 49 | 68 | 0.0 | 0.0 | 0.00 | 0.00 | 0.00 | 93 | 1010.9 |
| 20260503130724 | 49 | 68 | 0.0 | 0.0 | 0.00 | 0.00 | 0.00 | 93 | 1010.6 |
| 20260503130221 | 49 | 68 | 0.0 | 0.9 | 0.00 | 0.00 | 0.00 | 92 | 1010.5 |
| 20260503120147 | 50 | 68 | 0.0 | 0.0 | 0.00 | 0.00 | 0.00 | 92 | 1010.6 |
| 20260503110615 | 51 | 68 | 0.0 | 0.9 | 0.00 | 0.00 | 0.00 | 92 | 1010.8 |
| 20260503110112 | 51 | 68 | 0.0 | 0.0 | 0.00 | 0.00 | 0.00 | 92 | 1010.9 |
| 20260503090502 | 54 | 68 | 0.9 | 0.9 | 0.00 | 0.00 | 0.00 | 90 | 1011.2 |
| 20260503081428 | 55 | 68 | 0.0 | 0.9 | 0.00 | 0.00 | 0.00 | 89 | 1011.4 |
| 20260503080925 | 55 | 68 | 0.9 | 0.9 | 0.00 | 0.00 | 0.00 | 89 | 1011.2 |
| 20260503080422 | 55 | 68 | 0.9 | 0.9 | 0.00 | 0.00 | 0.00 | 89 | 1011.1 |
| 20260503072858 | 55 | 68 | 0.0 | 0.0 | 0.00 | 0.00 | 0.00 | 89 | 1011.2 |
| 20260503072355 | 55 | 68 | 0.9 | 0.9 | 0.00 | 0.00 | 0.00 | 89 | 1011.5 |
| 20260503071851 | 55 | 68 | 0.9 | 0.9 | 0.00 | 0.00 | 0.00 | 89 | 1011.4 |
| 20260503071349 | 55 | 67 | 0.0 | 0.0 | 0.00 | 0.00 | 0.00 | 88 | 1011.4 |
| 20260503070845 | 56 | 69 | 0.0 | 0.0 | 0.00 | 0.00 | 0.00 | 88 | 1011.4 |
| 20260503070343 | 56 | 69 | 0.0 | 0.9 | 0.00 | 0.00 | 0.00 | 88 | 1011.3 |
| 20260503060314 | 58 | 77 | 0.0 | 0.9 | 0.00 | 0.02 | 0.02 | 84 | 1011.3 |
| 20260503054801 | 59 | 77 | 0.9 | 1.7 | 0.00 | 0.02 | 0.02 | 83 | 1011.5 |
| 20260503054258 | 59 | 77 | 0.9 | 0.9 | 0.00 | 0.02 | 0.02 | 83 | 1011.4 |
| 20260503053756 | 59 | 77 | 0.9 | 0.9 | 0.00 | 0.02 | 0.02 | 82 | 1011.1 |
| 20260503053254 | 59 | 77 | 0.9 | 0.9 | 0.00 | 0.02 | 0.02 | 82 | 1011.0 |
| 20260503052750 | 59 | 77 | 0.9 | 0.9 | 0.00 | 0.02 | 0.02 | 82 | 1011.0 |
| 20260503052247 | 59 | 77 | 0.0 | 0.9 | 0.00 | 0.02 | 0.02 | 83 | 1011.1 |
| 20260503051742 | 60 | 77 | 0.0 | 0.0 | 0.00 | 0.02 | 0.02 | 82 | 1011.2 |
| 20260503051240 | 60 | 77 | 0.0 | 0.0 | 0.00 | 0.02 | 0.02 | 81 | 1011.0 |
| 20260503050736 | 59 | 77 | 0.9 | 0.9 | 0.00 | 0.02 | 0.02 | 82 | 1011.1 |
| 20260503050233 | 60 | 77 | 0.0 | 0.0 | 0.00 | 0.02 | 0.02 | 81 | 1011.1 |
| 20260503045730 | 60 | 77 | 0.0 | 0.9 | 0.00 | 0.02 | 0.02 | 81 | 1011.3 |
| 20260503045228 | 60 | 77 | 0.0 | 0.0 | 0.00 | 0.02 | 0.02 | 80 | 1011.3 |
| 20260503044724 | 60 | 77 | 0.0 | 0.9 | 0.00 | 0.02 | 0.02 | 79 | 1011.5 |
| 20260503044222 | 61 | 77 | 0.0 | 0.0 | 0.00 | 0.02 | 0.02 | 79 | 1011.5 |
| 20260503043718 | 61 | 77 | 0.9 | 0.9 | 0.00 | 0.02 | 0.02 | 79 | 1011.6 |
| 20260503043216 | 61 | 76 | 0.0 | 0.9 | 0.00 | 0.02 | 0.02 | 78 | 1011.5 |
| 20260503042711 | 61 | 76 | 0.9 | 0.9 | 0.00 | 0.02 | 0.02 | 78 | 1011.7 |
| 20260503042208 | 61 | 76 | 0.9 | 0.9 | 0.00 | 0.02 | 0.02 | 77 | 1011.7 |
| 20260503041704 | 61 | 77 | 0.9 | 0.9 | 0.00 | 0.02 | 0.02 | 77 | 1011.4 |
| 20260503041202 | 62 | 76 | 0.0 | 0.9 | 0.00 | 0.02 | 0.02 | 76 | 1011.5 |
| 20260503040659 | 62 | 76 | 0.9 | 0.9 | 0.00 | 0.02 | 0.02 | 75 | 1011.6 |
| 20260503040157 | 62 | 76 | 0.0 | 0.0 | 0.00 | 0.02 | 0.02 | 75 | 1011.3 |
| 20260503035653 | 62 | 76 | 0.0 | 0.9 | 0.00 | 0.02 | 0.02 | 74 | 1011.1 |
| 20260503035151 | 63 | 77 | 0.0 | 0.9 | 0.00 | 0.02 | 0.02 | 73 | 1011.4 |
| 20260503034648 | 63 | 77 | 0.0 | 0.9 | 0.00 | 0.02 | 0.02 | 73 | 1011.4 |
| 20260503034145 | 63 | 77 | 0.0 | 0.9 | 0.00 | 0.02 | 0.02 | 73 | 1011.3 |
| 20260503033642 | 64 | 77 | 0.0 | 1.7 | 0.00 | 0.02 | 0.02 | 72 | 1011.2 |
| 20260503033140 | 64 | 76 | 0.9 | 0.9 | 0.00 | 0.02 | 0.02 | 70 | 1011.3 |
| 20260503032638 | 64 | 76 | 0.0 | 0.9 | 0.00 | 0.02 | 0.02 | 70 | 1011.3 |
| 20260503032137 | 64 | 76 | 0.0 | 0.0 | 0.00 | 0.02 | 0.02 | 70 | 1011.0 |
| 20260503031634 | 65 | 76 | 0.0 | 0.9 | 0.00 | 0.02 | 0.02 | 69 | 1011.3 |
| 20260503031131 | 65 | 76 | 0.9 | 0.9 | 0.00 | 0.02 | 0.02 | 67 | 1011.1 |
| 20260503030627 | 65 | 76 | 0.9 | 0.9 | 0.00 | 0.02 | 0.02 | 66 | 1011.2 |
| 20260503030124 | 65 | 76 | 0.9 | 0.9 | 0.00 | 0.02 | 0.02 | 66 | 1011.2 |
| 20260503025620 | 65 | 79 | 1.7 | 1.7 | 0.00 | 0.02 | 0.02 | 65 | 1011.0 |
| 20260503025119 | 65 | 62 | 0.9 | 2.6 | 0.00 | 0.02 | 0.02 | 66 | 1011.1 |
| 20260503024614 | 65 | 107 | 0.9 | 3.5 | 0.00 | 0.02 | 0.02 | 66 | 1010.9 |
| 20260503024111 | 65 | 193 | 3.5 | 5.2 | 0.00 | 0.02 | 0.02 | 66 | 1010.9 |
| 20260503023609 | 66 | 212 | 3.5 | 6.1 | 0.00 | 0.02 | 0.02 | 65 | 1010.9 |
| 20260503023106 | 67 | 198 | 5.2 | 6.1 | 0.00 | 0.02 | 0.02 | 64 | 1011.0 |
| 20260503022601 | 68 | 148 | 2.6 | 5.2 | 0.00 | 0.02 | 0.02 | 62 | 1011.0 |
| 20260503022056 | 69 | 170 | 5.2 | 7.0 | 0.00 | 0.02 | 0.02 | 60 | 1010.8 |
| 20260503021554 | 69 | 79 | 0.9 | 7.0 | 0.00 | 0.02 | 0.02 | 59 | 1010.6 |
| 20260503021050 | 69 | 159 | 2.6 | 5.2 | 0.00 | 0.02 | 0.02 | 58 | 1010.7 |
| 20260503020548 | 69 | 150 | 2.6 | 5.2 | 0.00 | 0.02 | 0.02 | 58 | 1010.6 |
| 20260503020044 | 70 | 120 | 1.7 | 1.7 | 0.00 | 0.02 | 0.02 | 60 | 1010.3 |
| 20260503015541 | 70 | 110 | 1.7 | 1.7 | 0.00 | 0.02 | 0.02 | 58 | 1010.3 |
| 20260503015039 | 69 | 109 | 0.9 | 0.9 | 0.00 | 0.02 | 0.02 | 59 | 1010.2 |
| 20260503014534 | 70 | 106 | 0.9 | 1.7 | 0.00 | 0.02 | 0.02 | 62 | 1010.2 |
| 20260503014032 | 70 | 106 | 0.9 | 0.9 | 0.00 | 0.02 | 0.02 | 58 | 1009.9 |
| 20260503013529 | 70 | 107 | 0.9 | 0.9 | 0.00 | 0.02 | 0.02 | 61 | 1010.0 |
| 20260503013027 | 70 | 107 | 0.0 | 1.7 | 0.00 | 0.02 | 0.02 | 63 | 1010.0 |
| 20260503012524 | 70 | 104 | 0.9 | 1.7 | 0.00 | 0.02 | 0.02 | 59 | 1010.0 |
| 20260503012020 | 70 | 104 | 0.9 | 0.9 | 0.00 | 0.02 | 0.02 | 62 | 1010.0 |
| 20260503011517 | 70 | 104 | 0.0 | 1.7 | 0.00 | 0.02 | 0.02 | 60 | 1010.0 |
| 20260503011014 | 71 | 104 | 0.9 | 0.9 | 0.00 | 0.02 | 0.02 | 59 | 1010.1 |
| 20260503010510 | 71 | 104 | 0.9 | 0.9 | 0.00 | 0.02 | 0.02 | 59 | 1010.1 |
| 20260503010009 | 72 | 104 | 0.0 | 0.9 | 0.00 | 0.02 | 0.02 | 53 | 1010.1 |
| 20260503005505 | 72 | 104 | 0.9 | 0.9 | 0.00 | 0.02 | 0.02 | 55 | 1010.0 |
| 20260503005002 | 72 | 105 | 0.9 | 0.9 | 0.00 | 0.02 | 0.02 | 54 | 1010.0 |
| 20260503004458 | 72 | 93 | 0.9 | 0.9 | 0.00 | 0.02 | 0.02 | 54 | 1010.0 |
| 20260503003956 | 73 | 36 | 0.0 | 0.9 | 0.00 | 0.02 | 0.02 | 51 | 1010.2 |
| 20260503003453 | 72 | 37 | 0.0 | 1.7 | 0.00 | 0.02 | 0.02 | 52 | 1010.1 |
| 20260503002950 | 72 | 85 | 0.9 | 0.9 | 0.00 | 0.02 | 0.02 | 53 | 1010.2 |
| 20260503002447 | 73 | 30 | 0.0 | 0.9 | 0.00 | 0.02 | 0.02 | 54 | 1010.0 |
| 20260503001943 | 73 | 62 | 0.9 | 0.9 | 0.00 | 0.02 | 0.02 | 50 | 1010.1 |
| 20260503001440 | 73 | 28 | 1.7 | 1.7 | 0.00 | 0.02 | 0.02 | 51 | 1010.1 |
| 20260503000938 | 73 | 36 | 0.0 | 0.9 | 0.00 | 0.02 | 0.02 | 50 | 1009.9 |
| 20260503000434 | 73 | 23 | 0.9 | 3.5 | 0.00 | 0.02 | 0.02 | 52 | 1010.1 |
| 20260502235932 | 73 | 13 | 1.7 | 1.7 | 0.00 | 0.02 | 0.02 | 49 | 1010.3 |
| 20260502235429 | 73 | 24 | 0.9 | 3.5 | 0.00 | 0.02 | 0.02 | 50 | 1010.3 |
| 20260502234926 | 74 | 12 | 1.7 | 2.6 | 0.00 | 0.02 | 0.02 | 49 | 1010.2 |
| 20260502234422 | 73 | 19 | 0.9 | 1.7 | 0.00 | 0.02 | 0.02 | 51 | 1010.2 |
| 20260502233920 | 73 | 8 | 1.7 | 2.6 | 0.00 | 0.02 | 0.02 | 52 | 1010.3 |
| 20260502233415 | 73 | 350 | 1.7 | 1.7 | 0.00 | 0.02 | 0.02 | 50 | 1010.3 |
| 20260502232913 | 73 | 10 | 0.9 | 3.5 | 0.00 | 0.02 | 0.02 | 51 | 1010.2 |
| 20260502232408 | 74 | 102 | 0.9 | 1.7 | 0.00 | 0.02 | 0.02 | 49 | 1010.3 |
| 20260502231905 | 73 | 44 | 0.0 | 0.9 | 0.00 | 0.02 | 0.02 | 50 | 1010.6 |
| 20260502231403 | 73 | 18 | 0.9 | 2.6 | 0.00 | 0.02 | 0.02 | 49 | 1010.6 |
| 20260502230901 | 73 | 15 | 0.9 | 2.6 | 0.00 | 0.02 | 0.02 | 53 | 1010.6 |
| 20260502230359 | 73 | 4 | 0.0 | 2.6 | 0.00 | 0.02 | 0.02 | 52 | 1010.7 |
| 20260502225856 | 72 | 49 | 1.7 | 2.6 | 0.00 | 0.02 | 0.02 | 51 | 1010.8 |
| 20260502225352 | 72 | 337 | 3.5 | 7.0 | 0.00 | 0.02 | 0.02 | 51 | 1011.0 |
| 20260502224849 | 73 | 335 | 3.5 | 3.5 | 0.00 | 0.02 | 0.02 | 50 | 1010.9 |
| 20260502224345 | 73 | 35 | 0.9 | 1.7 | 0.00 | 0.02 | 0.02 | 49 | 1010.9 |
| 20260502223843 | 72 | 42 | 0.9 | 2.6 | 0.00 | 0.02 | 0.02 | 53 | 1011.2 |
| 20260502223341 | 73 | 11 | 2.6 | 3.5 | 0.00 | 0.02 | 0.02 | 48 | 1011.1 |
| 20260502222838 | 72 | 54 | 1.7 | 3.5 | 0.00 | 0.02 | 0.02 | 51 | 1011.3 |
| 20260502222336 | 72 | 17 | 2.6 | 3.5 | 0.00 | 0.02 | 0.02 | 49 | 1011.2 |
| 20260502221831 | 72 | 295 | 1.7 | 2.6 | 0.00 | 0.02 | 0.02 | 50 | 1011.4 |
| 20260502221328 | 71 | 18 | 0.9 | 2.6 | 0.00 | 0.02 | 0.02 | 51 | 1011.6 |
| 20260502220825 | 70 | 293 | 2.6 | 6.1 | 0.00 | 0.02 | 0.02 | 53 | 1011.6 |
| 20260502220321 | 69 | 14 | 0.9 | 3.5 | 0.00 | 0.02 | 0.02 | 54 | 1011.9 |
| 20260502215817 | 70 | 176 | 2.6 | 3.5 | 0.00 | 0.02 | 0.02 | 51 | 1011.8 |
| 20260502215314 | 69 | 318 | 2.6 | 2.6 | 0.00 | 0.02 | 0.02 | 58 | 1011.8 |
| 20260502214812 | 71 | 42 | 0.9 | 2.6 | 0.00 | 0.02 | 0.02 | 50 | 1012.0 |
| 20260502214308 | 70 | 42 | 0.0 | 5.2 | 0.00 | 0.02 | 0.02 | 53 | 1012.2 |
| 20260502213806 | 70 | 359 | 2.6 | 5.2 | 0.00 | 0.02 | 0.02 | 52 | 1012.2 |
| 20260502213302 | 70 | 22 | 1.7 | 6.1 | 0.00 | 0.02 | 0.02 | 54 | 1012.2 |
| 20260502212802 | 69 | 22 | 0.9 | 3.5 | 0.00 | 0.02 | 0.02 | 54 | 1012.2 |
| 20260502212259 | 69 | 1 | 1.7 | 3.5 | 0.00 | 0.02 | 0.02 | 52 | 1012.2 |
| 20260502211755 | 70 | 67 | 0.9 | 2.6 | 0.00 | 0.02 | 0.02 | 55 | 1012.3 |
| 20260502211252 | 69 | 26 | 0.9 | 3.5 | 0.00 | 0.02 | 0.02 | 52 | 1012.4 |
| 20260502210749 | 68 | 30 | 1.7 | 1.7 | 0.00 | 0.02 | 0.02 | 54 | 1012.3 |
| 20260502210247 | 69 | 29 | 1.7 | 3.5 | 0.00 | 0.02 | 0.02 | 56 | 1012.5 |
| 20260502205744 | 67 | 6 | 2.6 | 3.5 | 0.00 | 0.02 | 0.02 | 58 | 1012.4 |
| 20260502205240 | 68 | 157 | 1.7 | 2.6 | 0.00 | 0.02 | 0.02 | 55 | 1012.7 |
| 20260502204737 | 65 | 63 | 0.9 | 0.9 | 0.00 | 0.02 | 0.02 | 63 | 1012.8 |
| 20260502204234 | 66 | 53 | 2.6 | 3.5 | 0.00 | 0.02 | 0.02 | 56 | 1012.8 |
| 20260502203732 | 64 | 24 | 0.9 | 2.6 | 0.00 | 0.02 | 0.02 | 61 | 1012.8 |
| 20260502203230 | 64 | 326 | 2.6 | 5.2 | 0.00 | 0.02 | 0.02 | 63 | 1013.0 |
| 20260502202723 | 63 | 81 | 1.7 | 1.7 | 0.00 | 0.02 | 0.02 | 63 | 1013.1 |
| 20260502202222 | 64 | 42 | 0.0 | 1.7 | 0.00 | 0.02 | 0.02 | 60 | 1013.3 |
| 20260502201719 | 65 | 16 | 0.9 | 1.7 | 0.00 | 0.02 | 0.02 | 61 | 1013.5 |
| 20260502201216 | 65 | 12 | 0.0 | 3.5 | 0.00 | 0.02 | 0.02 | 58 | 1013.1 |
| 20260502200712 | 64 | 11 | 1.7 | 2.6 | 0.00 | 0.02 | 0.02 | 60 | 1013.3 |
| 20260502200208 | 64 | 345 | 2.6 | 3.5 | 0.00 | 0.02 | 0.02 | 60 | 1013.5 |
| 20260502195707 | 65 | 348 | 2.6 | 7.0 | 0.00 | 0.02 | 0.02 | 58 | 1013.4 |
| 20260502195203 | 64 | 22 | 0.9 | 6.1 | 0.00 | 0.02 | 0.02 | 61 | 1013.4 |
| 20260502194700 | 63 | 336 | 1.7 | 3.5 | 0.00 | 0.02 | 0.02 | 62 | 1013.6 |
| 20260502194156 | 63 | 309 | 2.6 | 6.1 | 0.00 | 0.02 | 0.02 | 65 | 1013.6 |
| 20260502193652 | 62 | 67 | 0.0 | 1.7 | 0.00 | 0.02 | 0.02 | 63 | 1013.7 |
| 20260502193150 | 61 | 354 | 1.7 | 5.2 | 0.00 | 0.02 | 0.02 | 65 | 1013.8 |
| 20260502192645 | 61 | 157 | 2.6 | 3.5 | 0.00 | 0.02 | 0.02 | 66 | 1013.6 |
| 20260502192143 | 62 | 4 | 3.5 | 6.1 | 0.00 | 0.02 | 0.02 | 64 | 1014.0 |
| 20260502191639 | 61 | 16 | 0.9 | 0.9 | 0.00 | 0.02 | 0.02 | 65 | 1013.8 |
| 20260502191137 | 60 | 344 | 2.6 | 3.5 | 0.00 | 0.02 | 0.02 | 67 | 1014.0 |
| 20260502190634 | 60 | 18 | 1.7 | 2.6 | 0.00 | 0.02 | 0.02 | 69 | 1013.9 |
| 20260502190127 | 60 | 73 | 0.9 | 2.6 | 0.00 | 0.02 | 0.02 | 66 | 1014.3 |
| 20260502185620 | 59 | 280 | 1.7 | 2.6 | 0.00 | 0.02 | 0.02 | 72 | 1014.1 |
| 20260502185117 | 59 | 13 | 1.7 | 3.5 | 0.00 | 0.02 | 0.02 | 70 | 1014.0 |
| 20260502184614 | 59 | 22 | 0.9 | 2.6 | 0.00 | 0.02 | 0.02 | 71 | 1013.9 |
| 20260502184109 | 59 | 44 | 0.9 | 1.7 | 0.00 | 0.02 | 0.02 | 71 | 1014.0 |
| 20260502183606 | 57 | 26 | 0.0 | 1.7 | 0.00 | 0.02 | 0.02 | 74 | 1014.0 |
| 20260502183102 | 57 | 308 | 3.5 | 3.5 | 0.00 | 0.02 | 0.02 | 72 | 1014.1 |
| 20260502182557 | 57 | 47 | 0.0 | 1.7 | 0.00 | 0.02 | 0.02 | 73 | 1014.0 |
| 20260502182053 | 58 | 308 | 3.5 | 5.2 | 0.00 | 0.02 | 0.02 | 72 | 1014.1 |